EZY1175 BIKF-EGPH

Flight info

Callsign EZY1175
Flight time 1h 57m
Altitude 39000
Route OSKUM3A OSKUM DCT RATSU/N0457F390 DCT BARKU DCT BILLY DCT ULLAP DCT RIMOL DCT NESDI N560 FOYLE DCT STIRA
Aircraft A20N/M-SDE2E3FGHIRWXY/LB1

Departure

Time 2026-05-07 13:43
Airport Keflavik International Airport (BIKF)

Arrival

Time 2026-05-07 15:41
Airport Edinburgh Airport (EGPH)
Time Latitude Longitude Altitude Speed Heading
2026-05-07 13:29 63.99490 -22.62469 141 ft 0 kts 89°
2026-05-07 13:31 63.99490 -22.62497 141 ft 4 kts 91°
2026-05-07 13:31 63.99492 -22.62558 141 ft 4 kts 98°
2026-05-07 13:32 63.99498 -22.62617 141 ft 4 kts 115°
2026-05-07 13:32 63.99513 -22.62660 141 ft 4 kts 171°
2026-05-07 13:32 63.99521 -22.62662 141 ft 0 kts 180°
2026-05-07 13:34 63.99493 -22.62662 141 ft 10 kts 180°
2026-05-07 13:34 63.99404 -22.62715 141 ft 16 kts 206°
2026-05-07 13:35 63.99288 -22.62757 141 ft 14 kts 176°
2026-05-07 13:35 63.99209 -22.62685 141 ft 11 kts 174°
2026-05-07 13:35 63.99171 -22.62569 141 ft 11 kts 89°
2026-05-07 13:35 63.99172 -22.62349 141 ft 18 kts 90°
2026-05-07 13:36 63.99173 -22.61998 141 ft 24 kts 90°
2026-05-07 13:36 63.99171 -22.61599 141 ft 26 kts 90°
2026-05-07 13:36 63.99173 -22.61239 144 ft 10 kts 87°
2026-05-07 13:36 63.99172 -22.61099 148 ft 9 kts 92°
2026-05-07 13:37 63.99147 -22.60967 153 ft 9 kts 145°
2026-05-07 13:37 63.99084 -22.60951 158 ft 13 kts 181°
2026-05-07 13:37 63.98949 -22.60951 164 ft 22 kts 180°
2026-05-07 13:37 63.98782 -22.60957 162 ft 26 kts 180°
2026-05-07 13:38 63.98592 -22.60948 163 ft 28 kts 179°
2026-05-07 13:38 63.98390 -22.60942 164 ft 30 kts 179°
2026-05-07 13:38 63.98198 -22.60952 164 ft 27 kts 180°
2026-05-07 13:38 63.98014 -22.60951 165 ft 28 kts 180°
2026-05-07 13:39 63.97821 -22.60951 168 ft 27 kts 179°
2026-05-07 13:39 63.97636 -22.60952 168 ft 28 kts 179°
2026-05-07 13:39 63.97476 -22.60946 164 ft 24 kts 177°
2026-05-07 13:39 63.97297 -22.60947 163 ft 27 kts 180°
2026-05-07 13:40 63.97089 -22.60945 155 ft 30 kts 180°
2026-05-07 13:40 63.96873 -22.60949 147 ft 29 kts 181°
2026-05-07 13:40 63.96686 -22.60949 139 ft 25 kts 180°
2026-05-07 13:40 63.96561 -22.60955 134 ft 17 kts 181°
2026-05-07 13:41 63.96482 -22.60932 134 ft 9 kts 150°
2026-05-07 13:41 63.96460 -22.60825 139 ft 4 kts 96°
2026-05-07 13:41 63.96458 -22.60788 142 ft 7 kts 94°
2026-05-07 13:41 63.96467 -22.60602 145 ft 13 kts 63°
2026-05-07 13:42 63.96552 -22.60553 147 ft 13 kts 359°
2026-05-07 13:42 63.96601 -22.60556 148 ft 3 kts 358°
2026-05-07 13:42 63.96686 -22.60556 152 ft 35 kts
2026-05-07 13:42 63.97114 -22.60553 165 ft 88 kts 360°
2026-05-07 13:43 63.97870 -22.60552 170 ft 129 kts
2026-05-07 13:43 63.98853 -22.60562 408 ft 141 kts
2026-05-07 13:43 63.99809 -22.60603 969 ft 139 kts
2026-05-07 13:43 64.00785 -22.60663 1537 ft 140 kts
2026-05-07 13:44 64.01776 -22.60656 1898 ft 152 kts
2026-05-07 13:44 64.02892 -22.60593 2185 ft 169 kts
2026-05-07 13:44 64.04138 -22.60521 2495 ft 191 kts
2026-05-07 13:44 64.05388 -22.59404 3133 ft 196 kts 39°
2026-05-07 13:45 64.06189 -22.56927 4045 ft 198 kts 69°
2026-05-07 13:45 64.06351 -22.53800 4961 ft 204 kts 88°
2026-05-07 13:45 64.06337 -22.50405 5565 ft 224 kts 88°
2026-05-07 13:45 64.06318 -22.46675 6086 ft 246 kts 88°
2026-05-07 13:46 64.06208 -22.42818 6823 ft 257 kts 98°
2026-05-07 13:46 64.05621 -22.38768 7720 ft 267 kts 114°
2026-05-07 13:46 64.04703 -22.35073 8546 ft 275 kts 117°
2026-05-07 13:46 64.03737 -22.31249 9406 ft 281 kts 116°
2026-05-07 13:47 64.02752 -22.27322 10250 ft 288 kts 116°
2026-05-07 13:47 64.01738 -22.23254 10786 ft 306 kts 116°
2026-05-07 13:47 64.00649 -22.18876 11091 ft 329 kts 117°
2026-05-07 13:47 63.99493 -22.14245 11653 ft 340 kts 117°
2026-05-07 13:48 63.98313 -22.09544 12471 ft 344 kts 117°
2026-05-07 13:48 63.97115 -22.04778 13279 ft 349 kts 117°
2026-05-07 13:48 63.95899 -21.99948 14067 ft 354 kts 117°
2026-05-07 13:48 63.94664 -21.95049 14796 ft 358 kts 117°
2026-05-07 13:49 63.93416 -21.90113 15517 ft 362 kts 117°
2026-05-07 13:49 63.92153 -21.85129 16225 ft 366 kts 117°
2026-05-07 13:49 63.90874 -21.80090 16921 ft 370 kts 118°
2026-05-07 13:49 63.89578 -21.74998 17610 ft 374 kts 118°
2026-05-07 13:50 63.88275 -21.69894 18284 ft 378 kts 118°
2026-05-07 13:50 63.86966 -21.64775 18886 ft 382 kts 118°
2026-05-07 13:50 63.85628 -21.59555 19483 ft 385 kts 118°
2026-05-07 13:50 63.84273 -21.54285 20079 ft 388 kts 118°
2026-05-07 13:51 63.82906 -21.48979 20660 ft 392 kts 118°
2026-05-07 13:51 63.81522 -21.43621 21223 ft 396 kts 118°
2026-05-07 13:51 63.80120 -21.38207 21806 ft 399 kts 118°
2026-05-07 13:51 63.78707 -21.32766 22364 ft 403 kts 118°
2026-05-07 13:52 63.77342 -21.27188 22906 ft 406 kts 112°
2026-05-07 13:52 63.76329 -21.21220 23445 ft 407 kts 103°
2026-05-07 13:52 63.75729 -21.14982 23966 ft 407 kts 95°
2026-05-07 13:52 63.75353 -21.08611 24419 ft 410 kts 95°
2026-05-07 13:53 63.74972 -21.02290 24894 ft 413 kts 95°
2026-05-07 13:53 63.74570 -20.95775 25349 ft 415 kts 95°
2026-05-07 13:53 63.74167 -20.89370 25778 ft 419 kts 95°
2026-05-07 13:53 63.73752 -20.82853 26199 ft 422 kts 95°
2026-05-07 13:54 63.73328 -20.76270 26635 ft 424 kts 96°
2026-05-07 13:54 63.72900 -20.69654 27049 ft 427 kts 96°
2026-05-07 13:54 63.72466 -20.62999 27449 ft 430 kts 96°
2026-05-07 13:54 63.72026 -20.56299 27844 ft 433 kts 96°
2026-05-07 13:55 63.71553 -20.49567 28210 ft 437 kts 99°
2026-05-07 13:55 63.70783 -20.42885 28571 ft 442 kts 106°
2026-05-07 13:55 63.69651 -20.36397 28907 ft 447 kts 112°
2026-05-07 13:55 63.68327 -20.30036 29265 ft 450 kts 113°
2026-05-07 13:56 63.66998 -20.23625 29580 ft 453 kts 112°
2026-05-07 13:56 63.65672 -20.17186 29908 ft 455 kts 112°
2026-05-07 13:56 63.64339 -20.10687 30226 ft 458 kts 112°
2026-05-07 13:56 63.63001 -20.04160 30493 ft 461 kts 112°
2026-05-07 13:57 63.61652 -19.97593 30790 ft 463 kts 112°
2026-05-07 13:57 63.60314 -19.91097 31074 ft 465 kts 112°
2026-05-07 13:57 63.58948 -19.84489 31391 ft 467 kts 112°
2026-05-07 13:57 63.57579 -19.77889 31775 ft 466 kts 113°
2026-05-07 13:58 63.56204 -19.71302 32160 ft 466 kts 113°
2026-05-07 13:58 63.54824 -19.64716 32523 ft 465 kts 113°
2026-05-07 13:58 63.53447 -19.58169 32882 ft 465 kts 113°
2026-05-07 13:58 63.52062 -19.51612 33258 ft 464 kts 113°
2026-05-07 13:59 63.50677 -19.45074 33597 ft 464 kts 114°
2026-05-07 13:59 63.49292 -19.38551 33935 ft 464 kts 114°
2026-05-07 13:59 63.47901 -19.32025 34246 ft 463 kts 114°
2026-05-07 13:59 63.46512 -19.25528 34505 ft 463 kts 114°
2026-05-07 14:00 63.45119 -19.19028 34753 ft 463 kts 114°
2026-05-07 14:00 63.43722 -19.12532 34988 ft 463 kts 114°
2026-05-07 14:00 63.42324 -19.06052 35229 ft 463 kts 114°
2026-05-07 14:00 63.40940 -18.99656 35438 ft 463 kts 114°
2026-05-07 14:01 63.39534 -18.93179 35668 ft 463 kts 114°
2026-05-07 14:01 63.38128 -18.86721 35884 ft 463 kts 115°
2026-05-07 14:01 63.36714 -18.80248 36088 ft 463 kts 115°
2026-05-07 14:01 63.35303 -18.73805 36293 ft 463 kts 115°
2026-05-07 14:02 63.33884 -18.67349 36487 ft 463 kts 115°
2026-05-07 14:02 63.32464 -18.60907 36660 ft 464 kts 115°
2026-05-07 14:02 63.31041 -18.54468 36825 ft 464 kts 115°
2026-05-07 14:02 63.29610 -18.48017 36999 ft 465 kts 115°
2026-05-07 14:03 63.28176 -18.41566 37149 ft 466 kts 115°
2026-05-07 14:03 63.26737 -18.35115 37313 ft 466 kts 115°
2026-05-07 14:03 63.25296 -18.28678 37478 ft 466 kts 115°
2026-05-07 14:03 63.23868 -18.22315 37653 ft 466 kts 115°
2026-05-07 14:04 63.22420 -18.15880 37823 ft 466 kts 115°
2026-05-07 14:04 63.20971 -18.09458 37980 ft 466 kts 115°
2026-05-07 14:04 63.19520 -18.03051 38122 ft 466 kts 115°
2026-05-07 14:04 63.18061 -17.96629 38273 ft 466 kts 115°
2026-05-07 14:05 63.16604 -17.90234 38410 ft 466 kts 116°
2026-05-07 14:05 63.15141 -17.83835 38563 ft 466 kts 116°
2026-05-07 14:05 63.13679 -17.77455 38724 ft 465 kts 116°
2026-05-07 14:05 63.12215 -17.71083 38842 ft 465 kts 116°
2026-05-07 14:06 63.10748 -17.64718 38951 ft 464 kts 116°
2026-05-07 14:06 63.07806 -17.52011 39111 ft 464 kts 116°
2026-05-07 14:07 63.04858 -17.39349 39109 ft 463 kts 116°
2026-05-07 14:07 63.01918 -17.26801 39109 ft 463 kts 117°
2026-05-07 14:08 62.98950 -17.14204 39098 ft 463 kts 117°
2026-05-07 14:08 62.95971 -17.01631 39092 ft 464 kts 117°
2026-05-07 14:09 62.92978 -16.89076 39090 ft 464 kts 117°
2026-05-07 14:09 62.89969 -16.76524 39082 ft 464 kts 117°
2026-05-07 14:10 62.86969 -16.64083 39081 ft 464 kts 118°
2026-05-07 14:10 62.83942 -16.51602 39072 ft 464 kts 118°
2026-05-07 14:11 62.80906 -16.39154 39061 ft 464 kts 118°
2026-05-07 14:11 62.77849 -16.26691 39061 ft 464 kts 118°
2026-05-07 14:12 62.74786 -16.14275 39058 ft 464 kts 118°
2026-05-07 14:12 62.71734 -16.01972 39052 ft 465 kts 118°
2026-05-07 14:13 62.68641 -15.89573 39050 ft 465 kts 119°
2026-05-07 14:13 62.65542 -15.77218 39042 ft 465 kts 119°
2026-05-07 14:14 62.62427 -15.64872 39036 ft 466 kts 119°
2026-05-07 14:14 62.59297 -15.52536 39026 ft 465 kts 119°
2026-05-07 14:15 62.56190 -15.40352 39021 ft 465 kts 120°
2026-05-07 14:15 62.53046 -15.28095 39008 ft 466 kts 120°
2026-05-07 14:16 62.49886 -15.15845 39008 ft 465 kts 120°
2026-05-07 14:16 62.46732 -15.03683 39001 ft 464 kts 120°
2026-05-07 14:17 62.43557 -14.91510 38991 ft 465 kts 120°
2026-05-07 14:17 62.40392 -14.79439 38979 ft 464 kts 120°
2026-05-07 14:18 62.37202 -14.67337 38975 ft 465 kts 120°
2026-05-07 14:18 62.33995 -14.55237 38965 ft 463 kts 120°
2026-05-07 14:19 62.30784 -14.43188 38962 ft 465 kts 121°
2026-05-07 14:19 62.27560 -14.31151 38947 ft 464 kts 121°
2026-05-07 14:20 62.24331 -14.19165 38938 ft 463 kts 121°
2026-05-07 14:20 62.21643 -14.09236 38933 ft 463 kts 121°
2026-05-07 14:21 62.18395 -13.97296 38921 ft 464 kts 121°
2026-05-07 14:21 62.15156 -13.85452 38917 ft 463 kts 121°
2026-05-07 14:22 62.11338 -13.71568 38903 ft 463 kts 121°
2026-05-07 14:22 62.08617 -13.61723 38897 ft 463 kts 121°
2026-05-07 14:23 62.05329 -13.49889 38890 ft 463 kts 122°
2026-05-07 14:23 62.02037 -13.38100 38878 ft 463 kts 122°
2026-05-07 14:24 61.98732 -13.26324 38872 ft 462 kts 122°
2026-05-07 14:24 61.95442 -13.14661 38857 ft 463 kts 122°
2026-05-07 14:25 61.92115 -13.02932 38844 ft 462 kts 122°
2026-05-07 14:25 61.88786 -12.91256 38838 ft 463 kts 122°
2026-05-07 14:26 61.85444 -12.79593 38823 ft 463 kts 123°
2026-05-07 14:26 61.82094 -12.67965 38815 ft 462 kts 123°
2026-05-07 14:27 61.78732 -12.56352 38801 ft 463 kts 123°
2026-05-07 14:27 61.75361 -12.44769 38793 ft 462 kts 123°
2026-05-07 14:28 61.72003 -12.33287 38782 ft 462 kts 123°
2026-05-07 14:28 61.68616 -12.21767 38775 ft 462 kts 123°
2026-05-07 14:29 61.65216 -12.10255 38761 ft 462 kts 124°
2026-05-07 14:29 61.61806 -11.98772 38749 ft 463 kts 124°
2026-05-07 14:30 61.58410 -11.87389 38737 ft 462 kts 124°
2026-05-07 14:30 61.54986 -11.75976 38724 ft 462 kts 124°
2026-05-07 14:31 61.51550 -11.64573 38717 ft 462 kts 124°
2026-05-07 14:31 61.48104 -11.53195 38703 ft 462 kts 124°
2026-05-07 14:32 61.44673 -11.41927 38691 ft 461 kts 125°
2026-05-07 14:32 61.41216 -11.30625 38684 ft 462 kts 125°
2026-05-07 14:33 61.37747 -11.19342 38672 ft 462 kts 126°
2026-05-07 14:33 61.34268 -11.08071 38664 ft 462 kts 125°
2026-05-07 14:34 61.30782 -10.96842 38647 ft 461 kts 126°
2026-05-07 14:34 61.27289 -10.85646 38635 ft 461 kts 126°
2026-05-07 14:35 61.23792 -10.74489 38625 ft 460 kts 126°
2026-05-07 14:35 61.20314 -10.63446 38619 ft 460 kts 126°
2026-05-07 14:36 61.16806 -10.52361 38610 ft 460 kts 126°
2026-05-07 14:36 61.13285 -10.41298 38605 ft 459 kts 126°
2026-05-07 14:37 61.09763 -10.30259 38600 ft 459 kts 126°
2026-05-07 14:37 61.04489 -10.13787 38599 ft 459 kts 126°
2026-05-07 14:38 61.00601 -10.03400 38601 ft 457 kts 134°
2026-05-07 14:38 60.96080 -9.94233 38600 ft 454 kts 143°
2026-05-07 14:39 60.91025 -9.86495 38603 ft 453 kts 146°
2026-05-07 14:39 60.85935 -9.78821 38604 ft 454 kts 146°
2026-05-07 14:40 60.80842 -9.71178 38605 ft 454 kts 146°
2026-05-07 14:40 60.75765 -9.63607 38605 ft 454 kts 147°
2026-05-07 14:41 60.70648 -9.56010 38606 ft 454 kts 147°
2026-05-07 14:41 60.65519 -9.48426 38608 ft 455 kts 147°
2026-05-07 14:42 60.60389 -9.40871 38607 ft 455 kts 147°
2026-05-07 14:42 60.55259 -9.33347 38603 ft 454 kts 147°
2026-05-07 14:43 60.50143 -9.25871 38598 ft 452 kts 147°
2026-05-07 14:43 60.45024 -9.18422 38603 ft 453 kts 147°
2026-05-07 14:44 60.39904 -9.11000 38607 ft 452 kts 148°
2026-05-07 14:44 60.34813 -9.03649 38611 ft 452 kts 148°
2026-05-07 14:45 60.29690 -8.96280 38608 ft 452 kts 148°
2026-05-07 14:45 60.24566 -8.88941 38608 ft 452 kts 148°
2026-05-07 14:46 60.19436 -8.81621 38606 ft 451 kts 148°
2026-05-07 14:46 60.14311 -8.74337 38612 ft 451 kts 148°
2026-05-07 14:47 60.09186 -8.67080 38612 ft 451 kts 148°
2026-05-07 14:47 60.04057 -8.59848 38619 ft 451 kts 148°
2026-05-07 14:48 59.99148 -8.52108 38618 ft 454 kts 142°
2026-05-07 14:48 59.94395 -8.43809 38628 ft 454 kts 142°
2026-05-07 14:49 59.89635 -8.35536 38632 ft 454 kts 142°
2026-05-07 14:49 59.84862 -8.27302 38642 ft 453 kts 143°
2026-05-07 14:50 59.80089 -8.19112 38646 ft 453 kts 143°
2026-05-07 14:50 59.75305 -8.10939 38646 ft 453 kts 143°
2026-05-07 14:51 59.70569 -8.02878 38644 ft 451 kts 143°
2026-05-07 14:51 59.65799 -7.94794 38645 ft 452 kts 143°
2026-05-07 14:52 59.61013 -7.86711 38651 ft 452 kts 143°
2026-05-07 14:52 59.56224 -7.78654 38658 ft 452 kts 143°
2026-05-07 14:53 59.51424 -7.70612 38663 ft 453 kts 143°
2026-05-07 14:53 59.46620 -7.62593 38667 ft 453 kts 143°
2026-05-07 14:54 59.41829 -7.54627 38671 ft 453 kts 143°
2026-05-07 14:54 59.37006 -7.46637 38683 ft 454 kts 144°
2026-05-07 14:55 59.32175 -7.38666 38688 ft 454 kts 144°
2026-05-07 14:55 59.27334 -7.30708 38708 ft 454 kts 144°
2026-05-07 14:56 59.22487 -7.22771 38692 ft 454 kts 144°
2026-05-07 14:56 59.17648 -7.14877 38694 ft 452 kts 144°
2026-05-07 14:57 59.12811 -7.07018 38708 ft 453 kts 144°
2026-05-07 14:57 59.07997 -6.99226 38711 ft 452 kts 144°
2026-05-07 14:58 59.03149 -6.91408 38707 ft 452 kts 144°
2026-05-07 14:58 58.98306 -6.83626 38726 ft 451 kts 145°
2026-05-07 14:59 58.93498 -6.75931 38733 ft 451 kts 145°
2026-05-07 14:59 58.88547 -6.68402 38732 ft 449 kts 148°
2026-05-07 15:00 58.83593 -6.61199 38736 ft 448 kts 147°
2026-05-07 15:00 58.78621 -6.53915 38739 ft 448 kts 147°
2026-05-07 15:01 58.73654 -6.46629 38750 ft 448 kts 147°
2026-05-07 15:01 58.68685 -6.39369 38754 ft 448 kts 148°
2026-05-07 15:02 58.63745 -6.32180 38763 ft 447 kts 148°
2026-05-07 15:02 58.58777 -6.24978 38766 ft 447 kts 148°
2026-05-07 15:03 58.53807 -6.17799 38771 ft 447 kts 148°
2026-05-07 15:03 58.48837 -6.10647 38777 ft 446 kts 148°
2026-05-07 15:04 58.43872 -6.03526 38773 ft 446 kts 148°
2026-05-07 15:04 58.38934 -5.96470 38780 ft 446 kts 148°
2026-05-07 15:05 58.33962 -5.89392 38780 ft 446 kts 148°
2026-05-07 15:05 58.28995 -5.82345 38783 ft 445 kts 148°
2026-05-07 15:06 58.24019 -5.75311 38785 ft 445 kts 148°
2026-05-07 15:06 58.19042 -5.68301 38792 ft 445 kts 148°
2026-05-07 15:07 58.14062 -5.61312 38794 ft 446 kts 148°
2026-05-07 15:07 58.09075 -5.54337 38797 ft 446 kts 148°
2026-05-07 15:08 58.04110 -5.47419 38809 ft 446 kts 148°
2026-05-07 15:08 57.99108 -5.40472 38813 ft 447 kts 148°
2026-05-07 15:09 57.94093 -5.33534 38819 ft 447 kts 148°
2026-05-07 15:09 57.89073 -5.26612 38829 ft 447 kts 149°
2026-05-07 15:10 57.84046 -5.19706 38830 ft 448 kts 149°
2026-05-07 15:10 57.79044 -5.12858 38829 ft 448 kts 149°
2026-05-07 15:11 57.74012 -5.05992 38827 ft 447 kts 149°
2026-05-07 15:11 57.68981 -4.99154 38834 ft 447 kts 149°
2026-05-07 15:12 57.64800 -4.93489 38833 ft 447 kts 149°
2026-05-07 15:12 57.59765 -4.86687 38832 ft 446 kts 149°
2026-05-07 15:13 57.54738 -4.79921 38834 ft 446 kts 149°
2026-05-07 15:13 57.49713 -4.73180 38839 ft 445 kts 149°
2026-05-07 15:14 57.44690 -4.66465 38847 ft 445 kts 149°
2026-05-07 15:14 57.39664 -4.59771 38848 ft 444 kts 149°
2026-05-07 15:15 57.34698 -4.53175 38504 ft 439 kts 149°
2026-05-07 15:15 57.32227 -4.49900 37961 ft 437 kts 149°
2026-05-07 15:15 57.29764 -4.46642 37375 ft 433 kts 150°
2026-05-07 15:16 57.27317 -4.43412 36768 ft 431 kts 150°
2026-05-07 15:16 57.24880 -4.40201 36170 ft 428 kts 150°
2026-05-07 15:16 57.22463 -4.37022 35579 ft 426 kts 150°
2026-05-07 15:16 57.20051 -4.33854 35008 ft 424 kts 150°
2026-05-07 15:17 57.17655 -4.30712 34434 ft 421 kts 150°
2026-05-07 15:17 57.15270 -4.27590 33853 ft 419 kts 151°
2026-05-07 15:17 57.12898 -4.24491 33090 ft 419 kts 151°
2026-05-07 15:17 57.10506 -4.21376 32195 ft 422 kts 150°
2026-05-07 15:18 57.08098 -4.18245 31297 ft 426 kts 150°
2026-05-07 15:18 57.05669 -4.15089 30405 ft 429 kts 150°
2026-05-07 15:18 57.03264 -4.11966 29675 ft 429 kts 150°
2026-05-07 15:18 57.00806 -4.08775 28969 ft 425 kts 150°
2026-05-07 15:19 56.98439 -4.05707 28345 ft 420 kts 150°
2026-05-07 15:19 56.96058 -4.02627 27711 ft 416 kts 150°
2026-05-07 15:19 56.93704 -3.99588 27091 ft 412 kts 150°
2026-05-07 15:19 56.91369 -3.96581 26492 ft 409 kts 150°
2026-05-07 15:20 56.89056 -3.93607 25899 ft 405 kts 150°
2026-05-07 15:20 56.86755 -3.90653 25324 ft 402 kts 150°
2026-05-07 15:20 56.84472 -3.87726 24771 ft 399 kts 150°
2026-05-07 15:20 56.82208 -3.84830 24223 ft 396 kts 150°
2026-05-07 15:21 56.79958 -3.81955 23676 ft 393 kts 150°
2026-05-07 15:21 56.77727 -3.79108 23078 ft 390 kts 150°
2026-05-07 15:21 56.75513 -3.76289 22466 ft 386 kts 149°
2026-05-07 15:21 56.74800 -3.75381 22276 ft 385 kts 149°
2026-05-07 15:22 56.73680 -3.73958 21966 ft 383 kts 149°
2026-05-07 15:22 56.71507 -3.71198 21385 ft 380 kts 149°
2026-05-07 15:22 56.69344 -3.68454 20805 ft 377 kts 149°
2026-05-07 15:22 56.67250 -3.65802 20263 ft 374 kts 149°
2026-05-07 15:23 56.65071 -3.63045 19700 ft 371 kts 149°
2026-05-07 15:23 56.62960 -3.60377 19163 ft 368 kts 149°
2026-05-07 15:23 56.60865 -3.57734 18631 ft 366 kts 149°
2026-05-07 15:23 56.58781 -3.55109 18106 ft 363 kts 149°
2026-05-07 15:24 56.56712 -3.52503 17486 ft 360 kts 149°
2026-05-07 15:24 56.54656 -3.49917 16905 ft 358 kts 149°
2026-05-07 15:24 56.52616 -3.47354 16341 ft 355 kts 149°
2026-05-07 15:24 56.50589 -3.44810 15768 ft 353 kts 149°
2026-05-07 15:25 56.48602 -3.42324 15228 ft 351 kts 150°
2026-05-07 15:25 56.46428 -3.40505 14676 ft 341 kts 169°
2026-05-07 15:25 56.44099 -3.40107 14134 ft 332 kts 187°
2026-05-07 15:25 56.41880 -3.41090 13616 ft 326 kts 205°
2026-05-07 15:26 56.39992 -3.43288 13059 ft 321 kts 220°
2026-05-07 15:26 56.38294 -3.45891 12510 ft 319 kts 220°
2026-05-07 15:26 56.36607 -3.48469 11973 ft 317 kts 220°
2026-05-07 15:26 56.34930 -3.51017 11490 ft 314 kts 220°
2026-05-07 15:27 56.33270 -3.53533 10986 ft 311 kts 220°
2026-05-07 15:27 56.31615 -3.56033 10462 ft 309 kts 220°
2026-05-07 15:27 56.30011 -3.58454 10217 ft 299 kts 220°
2026-05-07 15:27 56.28454 -3.60799 10101 ft 285 kts 220°
2026-05-07 15:28 56.26970 -3.63034 9992 ft 272 kts 220°
2026-05-07 15:28 56.25550 -3.65171 9806 ft 262 kts 219°
2026-05-07 15:28 56.24159 -3.67260 9416 ft 260 kts 219°
2026-05-07 15:28 56.22773 -3.69339 9036 ft 258 kts 219°
2026-05-07 15:29 56.21400 -3.71397 8640 ft 255 kts 219°
2026-05-07 15:29 56.20038 -3.73438 8229 ft 255 kts 219°
2026-05-07 15:29 56.18684 -3.75464 7829 ft 254 kts 219°
2026-05-07 15:29 56.17336 -3.77457 7503 ft 251 kts 219°
2026-05-07 15:30 56.15989 -3.79454 7157 ft 249 kts 219°
2026-05-07 15:30 56.14679 -3.81403 6887 ft 247 kts 219°
2026-05-07 15:30 56.13274 -3.83151 6565 ft 249 kts 202°
2026-05-07 15:30 56.11570 -3.83540 6474 ft 251 kts 176°
2026-05-07 15:31 56.09904 -3.82516 6708 ft 261 kts 150°
2026-05-07 15:31 56.08637 -3.80088 6935 ft 275 kts 123°
2026-05-07 15:31 56.08085 -3.76780 6992 ft 286 kts 97°
2026-05-07 15:31 56.08348 -3.73241 6984 ft 288 kts 79°
2026-05-07 15:32 56.08831 -3.69807 6919 ft 280 kts 79°
2026-05-07 15:32 56.09307 -3.66481 6792 ft 271 kts 79°
2026-05-07 15:32 56.09768 -3.63253 6525 ft 267 kts 79°
2026-05-07 15:32 56.10175 -3.60012 6193 ft 265 kts 83°
2026-05-07 15:33 56.10489 -3.56766 5868 ft 263 kts 84°
2026-05-07 15:33 56.10791 -3.53536 5515 ft 263 kts 84°
2026-05-07 15:33 56.11096 -3.50248 5131 ft 279 kts 84°
2026-05-07 15:33 56.11410 -3.46744 4746 ft 286 kts 84°
2026-05-07 15:34 56.11706 -3.43266 4357 ft 285 kts 86°
2026-05-07 15:34 56.11888 -3.39741 4062 ft 280 kts 89°
2026-05-07 15:34 56.12037 -3.36311 3887 ft 273 kts 89°
2026-05-07 15:34 56.12020 -3.33013 3746 ft 257 kts 105°
2026-05-07 15:35 56.11597 -3.29982 3625 ft 245 kts 112°
2026-05-07 15:35 56.10955 -3.27235 3482 ft 231 kts 126°
2026-05-07 15:35 56.10040 -3.24996 3343 ft 216 kts 137°
2026-05-07 15:35 56.09046 -3.23073 3217 ft 205 kts 139°
2026-05-07 15:36 56.08094 -3.21254 3068 ft 195 kts 139°
2026-05-07 15:36 56.07197 -3.19547 3026 ft 179 kts 139°
2026-05-07 15:36 56.06365 -3.17978 3017 ft 176 kts 142°
2026-05-07 15:36 56.05339 -3.16986 3000 ft 164 kts 175°
2026-05-07 15:37 56.04212 -3.17211 3005 ft 166 kts 195°
2026-05-07 15:37 56.03147 -3.17869 3001 ft 157 kts 210°
2026-05-07 15:37 56.02228 -3.18771 2842 ft 147 kts 210°
2026-05-07 15:37 56.01355 -3.19674 2589 ft 143 kts 211°
2026-05-07 15:38 56.00622 -3.20849 2323 ft 142 kts 230°
2026-05-07 15:38 56.00078 -3.22357 1981 ft 147 kts 238°
2026-05-07 15:38 55.99581 -3.23940 1751 ft 145 kts 238°
2026-05-07 15:38 55.99093 -3.25509 1485 ft 144 kts 237°
2026-05-07 15:39 55.98561 -3.26990 1204 ft 137 kts 233°
2026-05-07 15:39 55.98073 -3.28301 1114 ft 118 kts 234°
2026-05-07 15:39 55.97657 -3.29549 967 ft 120 kts 234°
2026-05-07 15:39 55.97212 -3.30792 858 ft 119 kts 233°
2026-05-07 15:40 55.96777 -3.32023 665 ft 118 kts 236°
2026-05-07 15:40 55.96343 -3.33287 520 ft 122 kts 235°
2026-05-07 15:40 55.95892 -3.34610 321 ft 124 kts 237°
2026-05-07 15:40 55.95459 -3.35893 133 ft 117 kts 236°
2026-05-07 15:41 55.95078 -3.37006 112 ft 81 kts 239°
2026-05-07 15:41 55.94881 -3.37595 114 ft 39 kts 239°
2026-05-07 15:41 55.94762 -3.37944 115 ft 25 kts 239°
2026-05-07 15:41 55.94698 -3.38049 114 ft 11 kts 173°
2026-05-07 15:42 55.94621 -3.37982 111 ft 12 kts 149°
2026-05-07 15:42 55.94600 -3.37874 110 ft 11 kts 68°
2026-05-07 15:42 55.94633 -3.37760 112 ft 10 kts 58°
2026-05-07 15:42 55.94678 -3.37632 112 ft 14 kts 57°
2026-05-07 15:43 55.94739 -3.37457 110 ft 18 kts 58°
2026-05-07 15:43 55.94810 -3.37247 112 ft 22 kts 59°
2026-05-07 15:43 55.94891 -3.37008 112 ft 20 kts 57°
2026-05-07 15:43 55.94926 -3.36851 112 ft 14 kts 104°
2026-05-07 15:44 55.94905 -3.36724 112 ft 8 kts 69°
2026-05-07 15:44 55.94923 -3.36670 111 ft 8 kts 57°
2026-05-07 15:44 55.94962 -3.36563 111 ft 13 kts 57°
2026-05-07 15:44 55.94966 -3.36487 112 ft 6 kts 123°
2026-05-07 15:45 55.94946 -3.36458 112 ft 3 kts 148°
2026-05-07 15:45 55.94930 -3.36439 111 ft 0 kts 146°